x

8461490 - New London, Ct (nlnc3) Weather Station

8:18 - Thu 17th Aug 2017 All times are EDT. -4 hours from GMT.

  • Wind
    6mph, 7mph gusts
  • Sea Temp 70°f
  • Aire Temp 71°f
  • Sea Pressure 1015.9mb
  • 8461490 - New London, Ct
  • 8461490 - New London, Ct

More Historic Weather Station data

Upgrade to MSW Pro to gain access to the past 30 days of data for over 8000 Wavebouys and Weather Stations around the globe.

Join

Comparision Forecast

View Surf forecast
   
jue 08/17 8:18 6 7 mph 1015.9mb 70f 71f
8:12 6 8 mph 1015.8mb 70f 71f
8:06 7 8 mph 1015.7mb 70f 71f
8:00 7 8 mph 1015.7mb 70f 71f
7:54 6 7 mph 1015.7mb 70f 71f
7:48 5 7 mph 1015.7mb 70f 71f
7:42 6 8 mph 1015.7mb 70f 71f
7:36 7 8 mph 1015.8mb 70f 71f
7:30 7 9 mph 1015.8mb 69f 71f
7:24 8 8 mph 1015.7mb 69f 71f
7:18 8 9 mph 1015.6mb 69f 71f
7:12 7 9 mph 1015.6mb 69f 71f
7:06 7 9 mph 1015.5mb 69f 71f
7:00 8 9 mph 1015.5mb 69f 71f
6:54 7 9 mph 1015.5mb 69f 72f
6:48 7 9 mph 1015.5mb 69f 72f
6:42 8 9 mph 1015.5mb 69f 72f
6:36 8 9 mph 1015.6mb 69f 72f
6:30 8 10 mph 1015.5mb 69f 71f
6:24 9 10 mph 1015.6mb 69f 71f
6:18 8 8 mph 1015.6mb 69f 71f
6:12 7 9 mph 1015.7mb 69f 71f
6:06 8 9 mph 1015.7mb 69f 71f
6:00 8 10 mph 1015.6mb 69f 71f
5:54 9 11 mph 1015.6mb 69f 72f
5:48 10 11 mph 1015.7mb 69f 72f
5:42 10 11 mph 1015.7mb 69f 72f
5:36 10 13 mph 1015.6mb 69f 72f
5:30 11 14 mph 1015.6mb 69f 72f
5:24 13 14 mph 1015.7mb 69f 72f
5:18 10 11 mph 1015.6mb 69f 72f
5:12 10 11 mph 1015.6mb 69f 73f
5:06 10 13 mph 1015.6mb 69f 73f
5:00 10 13 mph 1015.7mb 69f 73f
4:54 10 11 mph 1015.7mb 68f 73f
4:48 10 11 mph 1015.6mb 69f 72f
4:42 10 13 mph 1015.6mb 69f 72f
4:36 11 13 mph 1015.6mb 69f 72f
4:30 10 13 mph 1015.6mb 69f 72f
4:24 10 13 mph 1015.6mb 69f 72f
4:18 11 14 mph 1015.7mb 69f 72f
4:12 11 13 mph 1015.7mb 69f 73f
4:06 10 13 mph 1015.8mb 69f 73f
4:00 11 13 mph 1015.9mb 70f 73f
3:54 11 14 mph 1015.9mb 70f 72f
3:48 10 14 mph 1015.8mb 69f 72f
3:42 11 14 mph 1015.8mb 70f 72f
3:36 10 13 mph 1015.9mb 69f 72f
3:30 10 13 mph 1015.9mb 69f 73f
3:24 10 13 mph 1016mb 70f 73f
3:18 9 11 mph 1016.1mb 70f 73f
3:12 9 10 mph 1016.1mb 69f 72f
3:06 9 11 mph 1016.2mb 69f 72f
3:00 9 11 mph 1016.2mb 69f 72f
2:54 10 14 mph 1016.3mb 69f 71f
2:48 11 14 mph 1016.3mb 69f 71f
2:42 13 14 mph 1016.4mb 68f 71f
2:36 13 14 mph 1016.5mb 68f 71f
2:30 13 14 mph 1016.7mb 69f 71f
2:24 11 13 mph 1016.7mb 69f 71f
2:18 10 13 mph 1016.8mb 69f 71f
2:12 10 11 mph 1016.8mb 69f 71f
2:06 11 13 mph 1016.9mb 69f 71f
2:00 11 13 mph 1016.9mb 69f 71f
1:54 11 14 mph 1017mb 69f 71f
1:48 13 14 mph 1017.1mb 69f 71f
1:42 13 14 mph 1017.2mb 69f 71f
1:36 13 14 mph 1017.3mb 69f 71f
1:30 13 14 mph 1017.2mb 69f 71f
1:24 13 15 mph 1017.3mb 69f 71f
1:18 13 14 mph 1017.4mb 69f 71f
1:12 14 15 mph 1017.4mb 69f 71f
1:06 13 14 mph 1017.4mb 69f 71f
1:00 11 14 mph 1017.5mb 69f 71f
12:54 11 15 mph 1017.5mb 69f 71f
12:48 13 15 mph 1017.5mb 69f 71f
12:42 13 14 mph 1017.4mb 69f 71f
12:36 13 14 mph 1017.5mb 70f 71f
12:30 11 13 mph 1017.6mb 70f 71f
12:24 11 14 mph 1017.7mb 70f 71f
12:18 11 14 mph 1017.6mb 70f 71f
12:12 9 13 mph 1017.6mb 69f 72f
12:06 7 8 mph 1017.6mb 69f 73f
12:00 6 8 mph 1017.7mb 69f 74f
11:54 2 5 mph 1017.9mb 69f 75f
11:48 2 5 mph 1017.9mb 70f 77f
11:42 3 5 mph 1017.9mb 69f 76f
11:36 3 5 mph 1018mb 69f 75f
11:30 3 5 mph 1018mb 69f 76f
11:24 2 5 mph 1017.9mb 70f 76f
11:18 3 5 mph 1017.9mb 69f 75f
11:12 1 5 mph 1018mb 69f 75f
11:06 3 5 mph 1017.9mb 69f 74f
11:00 2 3 mph 1018mb 70f 75f
10:54 3 6 mph 1018.1mb 69f 74f
10:48 3 5 mph 1018.1mb 69f 74f
10:42 3 5 mph 1018.1mb 69f 73f
10:36 3 6 mph 1018.2mb 69f 73f
10:30 3 6 mph 1018.3mb 69f 73f
10:24 5 6 mph 1018.3mb 69f 72f
10:18 5 6 mph 1018.3mb 69f 72f
10:12 3 6 mph 1018.3mb 69f 72f
10:06 5 6 mph 1018.4mb 69f 72f
10:00 5 6 mph 1018.3mb 69f 72f
9:54 5 7 mph 1018.4mb 69f 71f
9:48 3 6 mph 1018.3mb 69f 72f
9:42 3 6 mph 1018.3mb 69f 72f
9:36 2 5 mph 1018.4mb 69f 72f
9:30 2 6 mph 1018.4mb 69f 71f
9:24 3 7 mph 1018.3mb 69f 72f
9:18 5 6 mph 1018.4mb 69f 71f
9:12 3 5 mph 1018.3mb 69f 71f
9:06 2 5 mph 1018.3mb 69f 71f
9:00 2 6 mph 1018.2mb 69f 70f
8:54 2 6 mph 1018.2mb 69f 70f
8:48 3 8 mph 1018.2mb 69f 69f
8:42 5 8 mph 1018.2mb 68f 68f
8:36 6 8 mph 1018.3mb 68f 68f
8:30 6 8 mph 1018.3mb 68f 68f
8:24 6 9 mph 1018.3mb 68f 68f
8:18 7 9 mph 1018.2mb 68f 67f
8:12 7 9 mph 1018.2mb 68f 67f
8:06 7 10 mph 1018.1mb 68f 67f
8:00 7 8 mph 1018.2mb 68f 66f
7:54 6 10 mph 1018.1mb 68f 66f
7:48 7 11 mph 1018.1mb 68f 66f
7:42 7 10 mph 1018mb 68f 66f
7:36 7 10 mph 1017.9mb 68f 66f
7:30 7 10 mph 1017.8mb 68f 65f
7:24 7 11 mph 1017.8mb 69f 65f
7:18 7 10 mph 1017.8mb 69f 65f
7:12 6 8 mph 1017.8mb 69f 65f
7:06 7 9 mph 1017.8mb 69f 65f
7:00 6 9 mph 1017.8mb 69f 65f
6:54 6 9 mph 1017.7mb 69f 65f
6:48 6 9 mph 1017.7mb 69f 65f
6:42 6 9 mph 1017.5mb 69f 65f
6:36 7 9 mph 1017.5mb 69f 65f
6:30 6 9 mph 1017.5mb 69f 65f
6:24 7 9 mph 1017.4mb 69f 65f
6:18 7 9 mph 1017.4mb 69f 65f
6:12 6 9 mph 1017.4mb 69f 65f
6:06 7 9 mph 1017.4mb 69f 65f
6:00 5 9 mph 1017.3mb 69f 65f
5:54 6 9 mph 1017.3mb 69f 65f
5:48 5 8 mph 1017.2mb 69f 65f
5:42 6 9 mph 1017.1mb 69f 65f
5:36 6 9 mph 1017mb 69f 65f
5:30 6 8 mph 1017mb 69f 65f
5:24 6 7 mph 1017mb 69f 65f
5:18 5 8 mph 1017mb 69f 65f
5:12 5 8 mph 1016.9mb 69f 65f
5:06 5 8 mph 1016.8mb 69f 65f
5:00 5 7 mph 1016.8mb 69f 65f
4:54 5 8 mph 1016.8mb 69f 65f
4:48 5 7 mph 1016.7mb 69f 66f
4:42 3 6 mph 1016.7mb 69f 66f
4:36 1 5 mph 1016.7mb 69f 66f
4:30 2 5 mph 1016.7mb 69f 66f
4:24 1 5 mph 1016.6mb 69f 66f
4:18 1 3 mph 1016.5mb 69f 66f
4:12 1 5 mph 1016.5mb 69f 67f
4:06 2 5 mph 1016.5mb 69f 67f
4:00 2 5 mph 1016.4mb 69f 67f
3:54 1 6 mph 1016.3mb 69f 67f
3:48 2 5 mph 1016.4mb 69f 67f
3:42 3 7 mph 1016.4mb 69f 67f
3:36 3 7 mph 1016.4mb 69f 68f
3:30  -  mph 1016.3mb 69f 68f
3:24  -  mph 1016.3mb 68f 68f
3:18 5 6 mph 1016.3mb 68f 68f
3:12 1 5 mph 1016.1mb 68f 68f
3:06 2 5 mph 1016.1mb 68f 68f
3:00 2 6 mph 1016.2mb 68f 68f
2:54 2 3 mph 1016.2mb 68f 68f
2:48 2 3 mph 1016.2mb 68f -
2:42 1 7 mph 1016.3mb 68f -
2:36 5 7 mph 1016.2mb 68f -
2:30 5 7 mph 1016.2mb 68f 69f
2:24 2 7 mph 1016.1mb 69f 69f
2:18 3 8 mph 1016.1mb 69f 69f
2:12 6 8 mph 1016.1mb 69f 69f
2:06 5 9 mph 1016.1mb 69f 69f
2:00 5 9 mph 1016.1mb 69f 69f
1:54 5 9 mph 1016.1mb 70f 69f
1:48 6 8 mph 1016.1mb 70f 69f
1:42 6 7 mph 1016.1mb 70f 70f
1:36 3 8 mph 1016mb 70f 70f
1:30 5 7 mph 1015.9mb 70f 69f
1:24 5 8 mph 1015.9mb 70f 70f
1:18 5 9 mph 1015.9mb 71f 69f
1:12 6 9 mph 1016mb 71f 70f
1:06 3 6 mph 1015.9mb 71f 70f
1:00 3 6 mph 1016mb 71f 69f
12:54 3 6 mph 1016mb 71f 70f
12:48 3 6 mph 1016.1mb 71f 71f
12:42 3 6 mph 1016.1mb 71f 70f
12:36 2 3 mph 1016.1mb 71f 70f
12:30 2 5 mph 1016.1mb 71f 70f
12:24 2 5 mph 1016.1mb 71f 70f
12:18 2 5 mph 1016mb 71f 70f
12:12 3 3 mph 1016mb 71f 70f
12:06 3 5 mph 1015.9mb 71f 70f
12:00 3 5 mph 1015.9mb 71f 70f
mié 08/16 11:54 5 5 mph 1015.9mb 70f 70f
11:48 3 5 mph 1015.8mb 70f 70f
11:42 3 5 mph 1015.8mb 70f 70f
11:36 2 5 mph 1015.8mb 70f 71f
11:30 2 6 mph 1015.7mb 70f 71f
11:24 3 5 mph 1015.7mb 70f 71f
11:18 2 5 mph 1015.7mb 70f 71f
11:12 2 5 mph 1015.7mb 70f 71f
11:06 2 5 mph 1015.7mb 70f 71f
11:00 2 6 mph 1015.7mb 70f 71f
10:54 3 6 mph 1015.6mb 70f 71f
10:48 3 5 mph 1015.6mb 70f 71f
10:42 2 5 mph 1015.6mb 70f 71f
10:36 3 5 mph 1015.7mb 70f 71f
10:30 3 6 mph 1015.6mb 70f 71f
10:24 2 5 mph 1015.6mb 70f 72f
10:18 2 5 mph 1015.5mb 70f 72f
10:12 3 5 mph 1015.5mb 69f 72f
10:06 2 3 mph 1015.5mb 69f 72f
10:00 2 2 mph 1015.4mb 69f 72f
9:54 2 3 mph 1015.4mb 69f 73f
9:48 1 2 mph 1015.3mb 69f 73f
9:42 2 3 mph 1015.3mb 69f 73f
9:36 2 3 mph 1015.2mb 69f 73f
9:30 2 3 mph 1015.1mb 69f 73f
9:24 1 3 mph 1015.1mb 69f 73f
9:18 2 3 mph 1015mb 69f 74f
9:12 2 5 mph 1015mb 68f 74f
9:06 3 5 mph 1014.9mb 68f 74f
9:00 2 5 mph 1014.9mb 69f 74f
8:54 3 5 mph 1014.8mb 69f 75f
8:48 2 5 mph 1014.8mb 69f 75f
8:42 2 5 mph 1014.7mb 68f 76f
8:36 3 5 mph 1014.6mb 69f 76f
8:30 2 3 mph 1014.5mb 69f 76f
8:24 2 3 mph 1014.5mb 69f 77f
8:18 1 3 mph 1014.5mb 69f 77f
8:12 2 3 mph 1014.3mb 69f 77f
8:06 1 2 mph 1014.3mb 69f 78f
8:00 1 2 mph 1014.2mb 69f 78f
7:54 1 3 mph 1014.1mb 69f 79f
7:48 2 5 mph 1014mb 68f 80f
7:42 2 5 mph 1014mb 68f 80f
7:36 3 7 mph 1014mb 68f 80f
7:30 3 5 mph 1014mb 68f 81f
7:24 2 6 mph 1013.9mb 68f 81f
7:18 2 6 mph 1013.8mb 68f 82f
7:12 3 6 mph 1013.8mb 68f 82f
7:06 3 6 mph 1013.7mb 68f 82f
7:00 2 6 mph 1013.7mb 68f 82f
6:54 5 7 mph 1013.6mb 68f 83f
6:48 2 5 mph 1013.5mb 68f 83f
6:42 3 6 mph 1013.5mb 68f 84f
6:36 2 5 mph 1013.4mb 69f 84f
6:30 3 6 mph 1013.3mb 69f 84f
6:24 2 7 mph 1013.2mb 69f 85f
6:18 3 8 mph 1013.2mb 69f 85f
6:12 3 7 mph 1013.2mb 69f 85f
6:06 3 7 mph 1013.2mb 69f 85f
6:00 3 8 mph 1013.1mb 69f 85f
5:54 5 8 mph 1013.1mb 69f 85f
5:48 6 8 mph 1013.1mb 69f 85f
5:42 6 9 mph 1013mb 69f 84f
5:36 6 8 mph 1013mb 69f 84f
5:30 5 7 mph 1013mb 69f 84f
5:24 6 8 mph 1013mb 68f 84f
5:18 6 7 mph 1013.1mb 68f 84f
5:12 5 7 mph 1013.1mb 68f 84f
5:06 5 8 mph 1013.1mb 69f 83f
5:00 6 9 mph 1013.1mb 69f 83f
4:54 3 6 mph 1013mb 69f 85f
4:48 3 8 mph 1013mb 69f 85f
4:42 6 8 mph 1012.9mb 69f 84f
4:36 6 8 mph 1013mb 69f 83f
4:30 5 8 mph 1012.9mb 69f 84f
4:24 6 10 mph 1012.9mb 69f 85f
4:18 9 10 mph 1012.9mb 69f 84f
4:12 6 10 mph 1012.8mb 69f 84f
4:06 6 9 mph 1012.8mb 69f 84f
4:00 2 6 mph 1012.8mb 69f 83f
3:54 5 9 mph 1012.9mb 69f 83f
3:48 2 7 mph 1012.8mb 69f 83f
3:42 5 9 mph 1012.8mb 69f 85f
3:36 6 9 mph 1012.9mb 68f 84f
3:30 6 11 mph 1012.8mb 68f 84f
3:24 5 6 mph 1012.8mb 68f 85f
3:18 3 7 mph 1012.9mb 68f 83f
3:12 6 9 mph 1012.9mb 68f 83f
3:06 7 11 mph 1012.9mb 68f 83f
3:00 6 9 mph 1013mb 69f 83f
2:54 3 7 mph 1013.1mb 69f 83f
2:48 3 7 mph 1013.2mb 68f 84f
2:42 2 6 mph 1013.1mb 68f 83f
2:36 2 10 mph 1013.2mb 68f 83f
2:30 8 13 mph 1013.3mb 68f -
2:24 7 10 mph 1013.2mb 68f -
2:18  -  mph 1013.2mb 68f 83f
2:12  -  mph 1013.3mb 68f 83f
2:06  -  mph 1013.4mb 68f 83f
2:00  -  mph 1013.4mb - -
1:54  -  mph 1013.3mb - -
1:48  -  mph 1013.4mb - -
12:30  -  mph - - 82f
12:24  -  mph - - 82f
12:18 6 9 mph - 70f 82f
12:12 5 8 mph - 69f 82f
12:06 5 9 mph - 69f 83f
12:00 1 6 mph - 69f 81f
11:54 5 7 mph - 69f 81f
11:48 3 6 mph 1013.3mb 69f 81f
11:42 2 6 mph 1013.2mb 69f 80f
11:36 5 8 mph 1013.2mb 70f 79f
11:30 3 7 mph 1013.2mb 70f 79f
11:24 3 6 mph 1013.1mb 71f 79f
11:18 3 6 mph 1013.2mb 70f 79f
11:12 5 7 mph 1013.1mb 70f 78f
11:06 3 7 mph 1013.2mb 70f 78f
11:00 3 6 mph 1013.1mb 70f 78f
10:54 5 7 mph 1013.2mb 70f 78f
10:48 3 7 mph 1013.1mb 70f 78f
10:42 2 6 mph 1013.1mb 70f 78f
10:36 2 7 mph 1013.2mb 69f 78f
10:30 2 8 mph 1013.1mb 69f 78f
10:24 6 9 mph 1013.1mb 70f 77f
10:18 3 9 mph 1013.2mb 70f 77f
10:12 6 10 mph 1013.1mb 70f 77f
10:06 3 10 mph 1013mb 70f 77f
10:00 5 9 mph 1013mb 69f 76f
9:54 5 9 mph 1013mb 69f 76f
9:48 3 7 mph 1012.9mb 70f 76f
9:42 2 6 mph 1013mb 70f 76f
9:36 2 8 mph 1013mb 70f 75f
9:30 5 9 mph 1013mb 70f 75f
9:24 3 8 mph 1013mb 69f 75f
9:18 2 6 mph 1012.9mb 69f 75f
9:12 2 7 mph 1012.9mb 69f 75f
9:06 3 7 mph 1013mb 69f 75f
9:00 5 8 mph 1013mb 69f 74f
8:54 6 8 mph 1013mb 69f 74f
8:48 6 7 mph 1013.1mb 69f 74f
8:42 5 7 mph 1013.1mb 69f 74f
8:36 5 8 mph 1013.2mb 69f 74f
8:30 6 10 mph 1013.1mb 69f 74f
8:24 5 8 mph 1013.1mb 69f 74f
8:18 5 6 mph 1013.2mb 69f 73f
8:12 2 5 mph 1013.2mb 69f 73f
8:06 2 6 mph 1013.2mb 69f 72f
8:00 3 5 mph 1013.2mb 69f 72f
7:54 3 3 mph 1013.2mb 69f 72f
7:48 3 7 mph 1013.2mb 69f 72f
7:42 1 6 mph 1013.2mb 69f 72f
7:36 2 6 mph 1013.2mb 69f 72f
7:30 2 5 mph 1013.3mb 69f 71f
7:24 2 3 mph 1013.3mb 69f 70f
7:18 2 3 mph 1013.3mb 69f 70f
7:12 3 5 mph 1013.2mb 69f 69f
7:06 3 5 mph 1013.1mb 68f 69f
7:00 2 5 mph 1013.1mb 68f 68f
6:54 3 6 mph 1013mb 68f 68f
6:48 5 6 mph 1012.9mb 68f 68f
6:42 3 5 mph 1012.9mb 68f 68f
6:36 1 2 mph 1013mb 68f 68f
6:30  -  2 mph 1012.9mb 68f 68f
6:24 1 2 mph 1013mb 68f 68f
6:18  -  1 mph 1013mb 69f 67f
6:12  -  2 mph 1013mb 69f 67f
6:06  -  1 mph 1013mb 69f 67f
6:00 1 2 mph 1013mb 69f 67f
5:54 2 2 mph 1012.9mb 69f 67f
5:48 2 3 mph 1012.9mb 68f 67f
5:42 2 2 mph 1012.7mb 69f 67f
5:36 2 2 mph 1012.7mb 69f 67f
5:30 1 2 mph 1012.6mb 69f 68f
5:24 2 2 mph 1012.6mb 69f 68f
5:18 1 1 mph 1012.5mb 69f 68f
5:12 1 2 mph 1012.5mb 69f 68f
5:06 1 2 mph 1012.5mb 69f 68f
5:00 2 3 mph 1012.4mb 69f 68f
4:54 2 3 mph 1012.4mb 69f 68f
4:48 3 3 mph 1012.5mb 69f 68f
4:42 2 2 mph 1012.4mb 69f 68f
4:36  -  1 mph 1012.4mb 69f 68f
4:30 1 2 mph 1012.4mb 69f 68f
4:24 1 1 mph 1012.3mb 69f 68f
4:18  -  1 mph 1012.3mb 69f 69f
4:12  -  1 mph 1012.4mb 69f 69f
4:06  -  1 mph 1012.5mb 69f 69f
4:00  -  1 mph 1012.6mb 69f 69f
3:54  -  2 mph 1012.6mb 69f 69f
3:48 2 5 mph 1012.5mb 69f 69f
3:42 2 5 mph 1012.5mb 69f 69f
3:36 3 7 mph 1012.5mb 69f 69f
3:30 3 8 mph 1012.5mb 69f 69f
3:24 2 3 mph 1012.5mb 69f 69f
3:18 1 2 mph 1012.5mb 70f 69f
3:12  -  1 mph 1012.4mb 70f 69f
3:06  -  1 mph 1012.3mb 70f 69f
3:00  -  2 mph 1012.2mb 70f 69f
2:54 2 2 mph 1012.1mb 70f 69f
2:48  -  2 mph 1012.3mb 70f 69f
2:42 1 2 mph 1012.3mb 70f 69f
2:36 1 2 mph 1012.4mb 70f 69f
2:30 2 3 mph 1012.3mb 70f 69f
2:24 2 3 mph 1012.4mb 70f 68f
2:18 2 3 mph 1012.2mb 70f 68f
2:12 2 3 mph 1012.2mb 70f 68f
2:06 2 3 mph 1012.1mb 70f 68f
2:00 2 3 mph 1012.1mb 69f 68f
1:54 2 3 mph 1011.9mb 69f 68f
1:48 2 5 mph 1011.8mb 69f 69f
1:42 1 2 mph 1011.8mb 69f 69f
1:36 2 2 mph 1011.9mb 69f 69f
1:30 2 3 mph 1011.9mb 69f 69f
1:24 3 5 mph 1011.9mb 69f 69f
1:18 2 3 mph 1011.8mb 69f 69f
1:12 3 5 mph 1011.9mb 69f 69f
1:06 2 3 mph 1012mb 69f 68f
1:00 2 3 mph 1012mb 70f 69f
12:54 2 3 mph 1011.9mb 70f 69f
12:48 2 5 mph 1011.9mb 70f 69f
12:42 2 3 mph 1011.9mb 70f 69f
12:36 2 3 mph 1011.9mb 70f 69f
12:30 2 5 mph 1011.9mb 70f 69f
12:24  -  3 mph 1011.9mb 71f 69f
12:18 1 2 mph 1011.9mb 71f 69f
12:12  -  2 mph 1011.9mb 71f 69f
12:06 1 3 mph 1011.9mb 71f 69f
12:00 1 6 mph 1011.9mb 71f 69f
mar 08/15 11:54 2 5 mph 1011.8mb 71f 69f
11:48 3 5 mph 1011.8mb 71f 70f
11:42 3 5 mph 1011.9mb 71f 70f
11:36 3 5 mph 1012mb 71f 70f
11:30  -  mph 1012.2mb 71f 69f
11:24  -  mph 1012.2mb 71f 69f
11:18 1 2 mph 1012.3mb 71f 69f
11:12 1 2 mph 1012.3mb 70f 69f
11:06 1 1 mph 1012.3mb 70f 69f
11:00  -  3 mph 1012.2mb 70f 69f
10:54 1 2 mph 1012.4mb 70f 69f
10:48  -  2 mph 1012.6mb 70f 69f
10:42 2 3 mph 1012.6mb 70f 69f
10:36 2 3 mph 1012.5mb 70f 69f
10:30  -  2 mph 1012.5mb 70f 69f
10:24  -  2 mph 1012.5mb 70f 69f
10:18 2 3 mph 1012.7mb 70f 69f
10:12 2 3 mph 1012.7mb 70f 69f
10:06 2 2 mph 1012.6mb 70f 69f
10:00 1 3 mph 1012.6mb 70f 69f
9:54 2 3 mph 1012.7mb 70f 70f
9:48 2 3 mph 1012.6mb 70f 70f
9:42 2 5 mph 1012.6mb 70f 70f
9:36 3 5 mph 1012.7mb 70f 70f
9:30 2 5 mph 1012.7mb 70f 70f
9:24 2 3 mph 1012.7mb 69f 70f
9:18 2 3 mph 1012.7mb 69f 70f
9:12 3 5 mph 1012.7mb 69f 70f
9:06 2 3 mph 1012.8mb 70f 70f
9:00 2 3 mph 1012.9mb 69f 70f
8:54 2 5 mph 1013mb 69f 70f
8:48 5 6 mph 1012.9mb 69f 70f
8:42 3 5 mph 1012.9mb 69f 70f
8:36 5 6 mph 1012.9mb 69f 70f
8:30 5 7 mph 1012.9mb 69f 70f
8:24 6 6 mph 1012.7mb 69f 70f
8:18 6 7 mph 1012.7mb 69f 70f
8:12 6 7 mph 1012.7mb 69f 70f
8:06 6 7 mph 1012.8mb 69f 70f
8:00 5 6 mph 1012.9mb 69f 70f
7:54 5 5 mph 1013mb 69f 70f
7:48 5 6 mph 1013mb 69f 70f
7:42 5 7 mph 1013mb 69f 70f
7:36 6 6 mph 1013mb 69f 70f
7:30 5 6 mph 1013mb 69f 71f
7:24 6 7 mph 1012.9mb 69f 70f
7:18 6 8 mph 1012.9mb 69f 71f
7:12 8 9 mph 1012.8mb 69f 70f
7:06 7 8 mph 1012.8mb 69f 71f
7:00 6 8 mph 1012.9mb 69f 71f
6:54 7 8 mph 1013mb 69f 71f
6:48 7 9 mph 1013mb 69f 71f
6:42 7 8 mph 1013mb 69f 71f
6:36 7 9 mph 1012.9mb 69f 71f
6:30 8 9 mph 1012.9mb 69f 71f
6:24 8 9 mph 1012.9mb 69f 71f
6:18 7 9 mph 1013.1mb 69f 71f
6:12 6 7 mph 1012.9mb 69f 71f
6:06 6 7 mph 1012.9mb 69f 71f
6:00 6 7 mph 1012.8mb 69f 71f
5:54 6 8 mph 1012.7mb 69f 71f
5:48 6 8 mph 1012.7mb 69f 71f
5:42 6 9 mph 1012.6mb 69f 71f
5:36 6 9 mph 1012.6mb 69f 71f
5:30 6 7 mph - 69f 71f
5:24 6 7 mph - 69f 71f
5:18 6 8 mph - 69f 71f
5:12 6 7 mph - 69f 70f
5:06 7 8 mph - 69f 70f
5:00 6 10 mph - 69f 71f
4:54 8 11 mph - 69f 71f
4:48 10 13 mph - 69f 70f
4:42 7 9 mph - 69f 71f
4:36 7 9 mph - 69f 71f
4:30 7 8 mph - 69f 71f
4:24 6 8 mph - 69f 71f
4:18 7 9 mph - - -
4:12 6 7 mph - - -
12:06  -  mph - - 72f
12:00 9 11 mph - 69f 72f
11:54 10 13 mph - 69f 72f
11:48 10 13 mph 1013.4mb 69f 72f
11:42 10 11 mph 1013.5mb 69f 72f
11:36 9 10 mph 1013.4mb 69f 73f
11:30 9 10 mph 1013.4mb 68f 73f
11:24 8 9 mph 1013.5mb 69f 74f
11:18 6 7 mph 1013.4mb 69f 74f
11:12 7 7 mph 1013.4mb 69f 74f
11:06 6 6 mph 1013.5mb 69f 74f
11:00 6 6 mph 1013.5mb 69f 74f
10:54 6 6 mph 1013.6mb 69f 73f
10:48 6 6 mph 1013.5mb 69f 73f
10:42 5 6 mph 1013.6mb 69f 73f
10:36 5 6 mph 1013.7mb 69f 73f
10:30 5 6 mph 1013.8mb 69f 73f
10:24 6 7 mph 1013.8mb 69f 72f
10:18 7 7 mph 1013.9mb 69f 72f
10:12 6 7 mph 1014mb 70f 73f
10:06 6 7 mph 1014mb 70f 73f
10:00 5 6 mph 1014mb 70f 73f
9:54 5 6 mph 1013.9mb 69f 73f
9:48 2 3 mph 1013.8mb 69f 74f
9:42 2 2 mph 1013.8mb 70f 74f
9:36 2 3 mph 1013.9mb 70f 73f
9:30 2 3 mph 1013.9mb 70f 73f
9:24 2 3 mph 1013.9mb 69f 74f
9:18 2 2 mph 1014mb 69f 74f
9:12 2 2 mph 1013.9mb 70f 73f
9:06 2 3 mph 1013.9mb 69f 73f
9:00 2 2 mph 1013.9mb 69f 73f
8:54 1 2 mph 1013.8mb 69f 72f
8:48 2 6 mph 1013.9mb 69f 72f
8:42 5 6 mph 1013.9mb 69f 72f
8:36 2 5 mph 1013.9mb 70f 72f
8:30 1 2 mph 1013.8mb 69f 72f
8:24 1 1 mph 1013.9mb 69f 72f
8:18  -  2 mph 1013.8mb 69f 71f
8:12 2 3 mph 1013.9mb 69f 71f
8:06 1 2 mph 1013.9mb 69f 71f
8:00 1 3 mph 1013.8mb 69f 71f
7:54 2 3 mph 1013.9mb 69f 70f
7:48  -  2 mph 1013.9mb 69f 70f
7:42 2 5 mph 1014.1mb 69f 70f
7:36 3 6 mph 1014.1mb 69f 69f
7:30 2 5 mph 1014.2mb 69f 69f
7:24 2 5 mph 1014.2mb 69f 69f
7:18 5 6 mph 1014.2mb 69f 69f
7:12 6 7 mph 1014.1mb 69f 69f
7:06 5 6 mph 1014.1mb 69f 70f
7:00 3 5 mph 1014mb 69f 69f
6:54 3 8 mph 1013.9mb 69f 69f
6:48 3 7 mph 1014mb 69f 69f
6:42 3 5 mph 1014mb 69f 70f
6:36 2 3 mph 1014.1mb 68f 69f
6:30 1 2 mph 1014mb 68f 70f
6:24  -  2 mph 1013.9mb 69f 70f
6:18 2 3 mph 1014mb 69f 70f
6:12 1 2 mph 1014mb 69f 70f
6:06  -  2 mph 1013.7mb 68f 69f
6:00  -  2 mph 1013.9mb 68f 69f
5:54  -  2 mph 1014.1mb 68f 69f
5:48  -  1 mph 1014.2mb 68f 69f
5:42 1 2 mph 1014.2mb 68f 69f
5:36  -  2 mph 1014mb 68f 69f
5:30 1 3 mph 1014.1mb 68f 69f
5:24 2 3 mph 1014.1mb 68f 69f
5:18  -  2 mph 1014mb 68f 69f
5:12 2 3 mph 1014mb 68f 69f
5:06 1 5 mph 1014mb 68f 69f
5:00 2 6 mph 1014.1mb 68f 69f
4:54 3 6 mph 1014.1mb 68f 70f
4:48 1 5 mph 1013.9mb 68f 70f
4:42 2 3 mph 1014mb 68f 70f
4:36 2 5 mph 1014.1mb 68f 71f
4:30 3 5 mph 1014.1mb 68f 71f
4:24  -  5 mph 1014.1mb 68f 71f
4:18 2 5 mph 1014.1mb 68f 71f
4:12 3 5 mph 1013.9mb 68f 71f
4:06 2 3 mph 1014mb 68f 71f
4:00 3 3 mph 1014.3mb 68f 71f
3:54 2 3 mph 1014.2mb 68f 70f
3:48 1 3 mph 1014.2mb 69f 70f
3:42 2 3 mph 1014.2mb 69f 70f
3:36 2 3 mph 1014mb 69f 70f
3:30 2 3 mph 1014mb 69f 70f
3:24 3 5 mph 1014.1mb 69f 70f
3:18 3 5 mph 1014mb 69f 70f
3:12 3 3 mph 1014mb 69f 70f
3:06 2 3 mph 1013.9mb 69f 70f
3:00 1 2 mph 1013.8mb 69f 70f
2:54 1 3 mph 1013.8mb 69f 70f
2:48 2 3 mph 1013.9mb 69f -
2:42 3 3 mph 1014.1mb 69f -
2:36 2 2 mph 1014mb 69f -
2:30 2 3 mph 1013.9mb 69f 70f
2:24 2 2 mph 1013.9mb 69f 70f
2:18 1 2 mph 1014mb 69f 70f
2:12 2 3 mph 1014mb 69f 70f
2:06  -  2 mph 1013.9mb 69f 70f
2:00 1 2 mph 1013.9mb 69f 70f
1:54 2 2 mph 1014mb 69f 70f
1:48 2 3 mph 1013.9mb 69f 70f
1:42 2 3 mph 1014mb 69f 70f
1:36 3 3 mph 1014mb 69f 70f
1:30 3 5 mph 1014.2mb 70f 70f
1:24 3 3 mph 1014.2mb 70f 70f
1:18 2 3 mph 1014.2mb 70f 70f
1:12 2 3 mph 1014.1mb 70f 70f
1:06 3 3 mph 1014.1mb 70f 70f
1:00  -  1 mph 1014.2mb 70f 70f
12:54 1 2 mph 1014.1mb 70f 70f
12:48  -  1 mph 1014.3mb 70f 70f
12:42 1 1 mph 1014.4mb 70f 70f
12:36  -  0 mph 1014.6mb 69f 70f
12:30  -  1 mph 1014.5mb 69f 70f
12:24 1 1 mph 1014.4mb 69f 70f
12:18  -  1 mph 1014.6mb 69f 70f
12:12  -  1 mph 1014.6mb 69f 70f
12:06  -  2 mph 1014.6mb 69f 70f
12:00 1 2 mph 1014.7mb 69f 70f
lun 08/14 11:54 1 2 mph 1014.7mb 69f 70f
11:48 2 2 mph 1014.6mb 69f 70f
11:42 2 2 mph 1014.6mb 69f 71f
11:36 2 3 mph 1014.7mb 69f 71f
11:30 2 3 mph 1014.7mb 69f 71f
11:24 1 2 mph 1014.8mb 70f 71f
11:18 1 2 mph 1014.8mb 70f 71f
11:12  -  3 mph 1014.8mb 70f 71f
11:06 2 3 mph 1014.7mb 70f 71f
11:00 1 2 mph 1014.7mb 70f 71f
10:54  -  2 mph 1014.7mb 70f 71f
10:48 2 3 mph 1014.8mb 70f 71f
10:42 1 2 mph 1014.7mb 70f 71f
10:36 2 3 mph 1014.7mb 70f 71f
10:30 2 3 mph 1014.7mb 70f 71f
10:24 2 3 mph 1014.8mb 70f 71f
10:18  -  2 mph 1015mb 70f 71f
10:12 2 3 mph 1015.1mb 70f 71f
10:06 2 5 mph 1015mb 70f 71f
10:00 2 3 mph 1015mb 70f 71f
9:54 2 3 mph 1015mb 70f 71f
9:48 2 3 mph 1015.1mb 69f 71f
9:42 3 3 mph 1015.1mb 69f 71f
9:36 1 3 mph 1015.1mb 70f 71f
9:30 2 6 mph 1015mb 70f 71f
9:24 6 6 mph 1015mb 70f 72f
9:18 2 3 mph 1015.1mb 70f 71f
9:12 3 5 mph 1015mb 69f 72f
9:06 3 6 mph 1015.1mb 70f 72f
9:00 3 3 mph 1015.1mb 70f 72f
8:54 2 3 mph 1014.9mb 70f 72f
8:48 1 2 mph 1014.9mb 70f 72f
7:54 3 5 mph 1014.8mb 69f 72f
7:48 2 3 mph 1014.8mb 69f 72f
7:42 2 3 mph 1015mb 69f 72f
7:36 3 5 mph 1014.9mb 69f 72f
7:30 5 6 mph 1014.8mb 69f 72f
7:24 3 5 mph 1014.7mb 68f 72f
7:18 6 8 mph 1014.8mb 68f 72f
7:12 7 8 mph 1014.7mb 68f 72f
7:06 7 8 mph 1014.9mb 69f 72f
7:00 6 6 mph 1014.9mb 69f 73f
6:54 5 6 mph 1015mb 69f 73f
6:48 5 6 mph 1014.9mb 69f 73f
6:42 5 7 mph 1014.8mb 69f 73f
6:36 5 7 mph 1014.8mb 69f 73f
6:30 6 7 mph 1014.8mb 69f 73f
6:24 5 6 mph 1014.8mb 69f 74f
6:18 3 5 mph 1014.7mb 69f 74f
6:12 3 6 mph 1014.8mb 69f 74f
6:06 5 5 mph 1014.8mb 69f 74f
6:00 3 5 mph 1014.9mb 69f 74f
5:54 3 5 mph 1014.9mb 69f 75f
5:48 5 7 mph 1014.9mb 69f 75f
5:42 3 5 mph 1014.9mb 69f 75f
5:36 5 6 mph 1015mb 69f 74f
5:30 5 6 mph 1015.1mb 69f 74f
5:24 5 6 mph 1015.2mb 68f 74f
5:18 6 6 mph 1015.2mb 69f 75f
5:12 6 7 mph 1015.1mb 69f 75f
5:06 5 7 mph 1015.1mb 68f 75f
5:00 6 7 mph 1015.2mb 68f 75f
4:54 6 8 mph 1015.2mb 68f 75f
4:48 7 8 mph 1015.3mb 68f 75f
4:42 8 8 mph 1015.3mb 68f 75f
4:36 7 7 mph 1015.3mb 68f 75f
4:30 6 7 mph 1015.2mb 68f 75f
4:24 6 7 mph 1015.2mb 68f 75f
4:18 6 7 mph 1015.2mb 68f 75f
4:12 6 6 mph 1015.3mb 69f 76f
4:06 6 7 mph 1015.3mb 69f 75f
4:00 6 7 mph 1015.3mb 69f 75f
3:54 7 8 mph 1015.4mb 69f 75f
3:48 8 9 mph 1015.6mb 69f 75f
3:42 6 7 mph 1015.7mb 68f 76f
3:36 5 6 mph 1015.7mb 68f 76f
3:30 6 8 mph 1015.7mb 69f 76f
3:24 7 8 mph 1015.7mb 69f 75f
3:18 8 9 mph 1015.7mb 68f 75f
3:12 7 8 mph 1015.7mb 69f 75f
3:06 7 7 mph 1015.8mb 69f 75f
3:00 5 7 mph 1015.8mb 69f 76f
2:54 6 6 mph 1015.9mb 69f 76f
2:48 5 7 mph 1016mb 68f 77f
2:42 6 7 mph 1016mb 68f 76f
2:36 6 8 mph 1016.1mb 68f 77f
2:30 7 8 mph 1016.1mb 68f 76f
2:24 6 7 mph 1016.1mb 68f 76f
2:18 6 7 mph 1016.2mb 68f 76f
2:12 6 7 mph 1016.3mb 68f 77f
2:06 6 7 mph 1016.3mb 68f 77f
1:54 6 7 mph 1016.2mb 68f 76f
1:48 5 7 mph 1016.2mb 68f 77f
1:42 6 7 mph 1016.3mb 68f 77f
1:36 6 6 mph 1016.3mb 68f 77f
1:30 5 6 mph 1016.2mb 69f 76f
1:24 5 6 mph 1016.3mb 68f 77f
1:18 6 7 mph 1016.3mb 69f 76f
1:12 6 7 mph 1016.4mb 68f 77f
1:06 6 7 mph 1016.4mb 68f 77f
1:00 5 6 mph 1016.4mb 68f 77f
12:54 3 6 mph 1016.6mb 68f 77f
12:48 3 6 mph 1016.6mb 68f 77f
12:42 3 5 mph 1016.8mb 68f 77f
12:36 3 6 mph 1016.8mb 68f 76f
12:30 6 8 mph 1017mb 68f 76f
12:24 5 5 mph 1017.1mb 68f 77f
12:18 5 7 mph 1017mb 68f 76f
12:12 5 6 mph 1017.1mb 68f 76f
12:06 5 7 mph 1017.2mb 68f 76f
12:00 6 8 mph 1017.2mb 68f 76f
11:54 6 7 mph 1017.4mb 68f 76f
11:48  -  mph 1017.3mb 68f 76f
11:42  -  mph 1017.3mb 68f 77f
11:36  -  mph 1017.3mb 68f 77f
11:30 6 10 mph 1017.3mb 68f 77f
11:24 8 9 mph 1017.3mb 68f 77f
11:18 6 8 mph 1017.2mb 68f 77f
11:12 7 9 mph 1017.2mb 68f 77f
11:06 7 8 mph 1017.3mb 68f 76f
11:00 8 9 mph 1017.2mb 68f 76f
10:54 7 9 mph 1017.2mb 68f 77f
10:48 8 9 mph 1017.2mb 68f 77f
10:42 8 9 mph 1017.2mb 68f 77f
10:36 5 7 mph 1017.2mb 68f 77f
10:30 5 7 mph 1017.2mb 68f 77f
10:24 2 6 mph 1017.2mb 68f 77f
10:18  -  2 mph 1017.3mb 68f 76f
10:12  -  5 mph 1017.3mb 68f 76f
10:06 1 2 mph 1017.3mb 69f 75f
10:00 3 5 mph 1017.3mb 69f 74f
9:54 3 6 mph 1017.3mb 69f 74f
9:48 5 6 mph 1017.5mb 69f 73f
9:42 5 7 mph 1017.5mb 69f 72f
9:36 6 7 mph 1017.5mb 69f 71f
9:30 6 7 mph 1017.4mb 69f 71f
9:24 5 7 mph 1017.3mb 69f 71f
9:18 5 8 mph 1017.3mb 69f 70f
9:12 5 6 mph 1017.2mb 69f 70f
9:06 5 6 mph 1017.3mb 69f 69f
9:00 5 7 mph 1017.3mb 69f 69f
8:54 6 7 mph 1017.3mb 69f 68f
8:48 7 8 mph 1017.4mb 69f 68f
8:42 6 9 mph 1017.3mb 69f 68f
8:36 6 9 mph 1017.3mb 69f 68f
8:30 7 10 mph 1017.3mb 69f 67f
8:24 6 9 mph 1017.4mb 69f 67f
8:18 6 9 mph 1017.5mb 69f 66f
8:12 7 9 mph 1017.4mb 69f 66f
8:06 7 11 mph 1017.4mb 69f 66f
8:00 8 9 mph 1017.4mb 69f 65f
7:54 7 10 mph 1017.4mb 69f 65f
7:48 6 9 mph 1017.4mb 69f 66f
7:42 7 11 mph 1017.4mb 69f 65f
7:36 7 10 mph 1017.3mb 69f 65f
7:30 8 11 mph 1017.4mb 69f 65f
7:24 8 11 mph 1017.4mb 69f 65f
7:18 8 11 mph 1017.3mb 68f 65f
7:12 7 10 mph 1017.3mb 69f 65f
7:06 8 10 mph 1017.2mb 69f 65f
7:00 7 10 mph 1017.2mb 69f 65f
6:54 8 10 mph 1017.1mb 69f 64f
6:48 8 10 mph 1017mb 69f 64f
6:42 8 10 mph 1017mb 69f 64f
6:36 8 10 mph 1017mb 69f 64f
6:30 7 9 mph 1016.9mb 69f 64f
6:24 7 9 mph 1016.9mb 69f 64f
6:18 7 10 mph 1016.8mb 69f 64f
6:12 7 9 mph 1016.7mb 69f 64f
6:06 8 10 mph 1016.7mb 69f 64f
6:00 7 9 mph 1016.7mb 69f 64f
5:54 7 10 mph 1016.7mb 69f 64f
5:48 8 10 mph 1016.7mb 69f 64f
5:42 8 10 mph 1016.6mb 69f 64f
5:36 8 10 mph 1016.6mb 69f 64f
5:30 7 10 mph 1016.6mb 69f 64f
5:24 8 10 mph 1016.6mb 69f 65f
5:18 8 10 mph 1016.5mb 69f 65f
5:12 9 11 mph 1016.4mb 69f 65f
5:06 9 10 mph 1016.4mb 69f 65f
5:00 9 10 mph 1016.4mb 69f 65f
4:54 8 10 mph 1016.3mb 69f 65f
4:48 8 10 mph 1016.3mb 68f 65f
4:42 8 9 mph 1016.4mb 68f 65f
4:36 7 9 mph 1016.4mb 68f 65f
4:30 7 9 mph 1016.3mb 68f 65f
4:24 6 9 mph 1016.3mb 68f 65f
4:18 6 8 mph 1016.3mb 68f 65f
4:12 6 8 mph 1016.4mb 68f 65f
4:06 6 7 mph 1016.5mb 68f 65f
4:00 6 7 mph 1016.5mb 68f 65f
3:54 6 8 mph 1016.4mb 68f 65f
3:48 6 7 mph 1016.4mb 68f 66f
3:42 6 9 mph 1016.5mb 68f 65f
3:36 5 8 mph 1016.5mb 68f 65f
3:30 6 8 mph 1016.5mb 68f 66f
3:24 5 7 mph 1016.4mb 69f 66f
3:18 5 7 mph 1016.4mb 69f 66f
3:12 5 7 mph 1016.4mb 69f 66f
3:06 5 7 mph 1016.4mb 69f 66f
3:00 6 7 mph 1016.3mb 69f 66f
2:54 5 7 mph 1016.3mb 69f 66f
2:48 6 7 mph 1016.4mb 69f -
2:42 5 7 mph 1016.4mb 69f -
2:36 3 7 mph 1016.3mb 69f -
2:30 5 7 mph 1016.3mb 69f 66f
2:24 5 7 mph 1016.2mb 69f 67f
2:18 5 8 mph 1016.2mb 69f 67f
2:12 6 8 mph 1016.2mb 69f 67f
2:06 6 8 mph 1016.2mb 69f 67f
2:00 6 7 mph 1016.3mb 69f 67f
1:54 5 7 mph 1016.2mb 69f 67f
1:48 5 7 mph 1016.2mb 69f 67f
1:42 5 7 mph 1016.2mb 69f 67f
1:36 5 7 mph 1016.1mb 69f 67f
1:30 5 6 mph 1016.1mb 69f 67f
1:24 3 6 mph 1016.2mb 69f 68f
1:18 3 6 mph 1016.2mb 69f 68f
1:12 5 6 mph 1016.2mb 69f 68f
1:06 3 6 mph 1016.2mb 69f 68f